SWR79B LSZH-LGTS

Flight info

Callsign SWR79B
Flight time 1h 54m
Altitude 37000
Route DEGES Z2 TUNUM Z204 GEDSO DCT VEKEN DCT ELTIB DCT GACMO DCT ENFAR DCT TALAS UN130 ALIKO
Aircraft A320/M-SDE3FGHIRWY/LB1

Departure

Time 2026-04-26 08:10
Airport Zürich Airport (LSZH)

Arrival

Time 2026-04-26 10:04
Airport Thessaloniki Macedonia International Airport (LGTS)
Time Latitude Longitude Altitude Speed Heading
2026-04-26 07:49 47.45168 8.55936 1410 ft 0 kts 186°
2026-04-26 07:59 47.45178 8.55938 1414 ft 4 kts 186°
2026-04-26 07:59 47.45205 8.55942 1410 ft 4 kts 189°
2026-04-26 07:59 47.45230 8.55952 1415 ft 4 kts 212°
2026-04-26 08:00 47.45246 8.55978 1412 ft 4 kts 265°
2026-04-26 08:00 47.45247 8.55987 1410 ft 0 kts 276°
2026-04-26 08:01 47.45247 8.55975 1413 ft 7 kts 276°
2026-04-26 08:02 47.45252 8.55902 1407 ft 4 kts 276°
2026-04-26 08:02 47.45258 8.55822 1409 ft 9 kts 276°
2026-04-26 08:02 47.45264 8.55738 1406 ft 7 kts 276°
2026-04-26 08:02 47.45271 8.55625 1406 ft 15 kts 276°
2026-04-26 08:03 47.45344 8.55530 1408 ft 15 kts 332°
2026-04-26 08:03 47.45411 8.55485 1406 ft 17 kts 335°
2026-04-26 08:03 47.45523 8.55462 1408 ft 16 kts 44°
2026-04-26 08:03 47.45520 8.55557 1406 ft 7 kts 96°
2026-04-26 08:04 47.45511 8.55719 1407 ft 25 kts 96°
2026-04-26 08:04 47.45493 8.55983 1407 ft 26 kts 97°
2026-04-26 08:04 47.45488 8.56221 1408 ft 18 kts 54°
2026-04-26 08:04 47.45556 8.56355 1413 ft 15 kts 51°
2026-04-26 08:05 47.45592 8.56493 1414 ft 15 kts 97°
2026-04-26 08:05 47.45584 8.56633 1417 ft 13 kts 97°
2026-04-26 08:05 47.45575 8.56750 1423 ft 11 kts 97°
2026-04-26 08:05 47.45567 8.56843 1420 ft 8 kts 96°
2026-04-26 08:06 47.45563 8.56920 1420 ft 6 kts 95°
2026-04-26 08:06 47.45566 8.56973 1421 ft 4 kts 73°
2026-04-26 08:06 47.45573 8.56991 1421 ft 2 kts 57°
2026-04-26 08:06 47.45600 8.57017 1424 ft 5 kts 18°
2026-04-26 08:07 47.45642 8.57013 1425 ft 7 kts 339°
2026-04-26 08:07 47.45665 8.56948 1424 ft 5 kts 281°
2026-04-26 08:07 47.45665 8.56947 1424 ft 0 kts 281°
2026-04-26 08:09 47.45665 8.56946 1424 ft 0 kts 281°
2026-04-26 08:09 47.45683 8.56742 1419 ft 55 kts 276°
2026-04-26 08:09 47.45753 8.55795 1408 ft 124 kts 277°
2026-04-26 08:09 47.45874 8.54264 1519 ft 161 kts 280°
2026-04-26 08:10 47.45989 8.52769 2425 ft 138 kts 278°
2026-04-26 08:10 47.46091 8.51264 2784 ft 156 kts 279°
2026-04-26 08:10 47.46211 8.49534 2990 ft 181 kts 278°
2026-04-26 08:10 47.46124 8.47501 3104 ft 211 kts 244°
2026-04-26 08:11 47.45147 8.45852 3363 ft 227 kts 214°
2026-04-26 08:11 47.44006 8.44193 3970 ft 235 kts 237°
2026-04-26 08:11 47.43374 8.41909 4719 ft 238 kts 253°
2026-04-26 08:11 47.42938 8.39558 4938 ft 238 kts 253°
2026-04-26 08:12 47.42186 8.37231 4995 ft 267 kts 227°
2026-04-26 08:12 47.40571 8.35645 5566 ft 275 kts 195°
2026-04-26 08:12 47.38682 8.35498 6381 ft 274 kts 163°
2026-04-26 08:12 47.37015 8.36831 7165 ft 275 kts 133°
2026-04-26 08:13 47.36083 8.39264 7874 ft 277 kts 101°
2026-04-26 08:13 47.36065 8.42141 8622 ft 280 kts 83°
2026-04-26 08:13 47.36270 8.45024 9423 ft 284 kts 82°
2026-04-26 08:13 47.36491 8.47983 10210 ft 289 kts 82°
2026-04-26 08:14 47.36721 8.51080 10650 ft 306 kts 82°
2026-04-26 08:14 47.36953 8.54312 10879 ft 328 kts 82°
2026-04-26 08:14 47.37192 8.57725 11387 ft 338 kts 83°
2026-04-26 08:14 47.37426 8.61185 12023 ft 343 kts 83°
2026-04-26 08:15 47.37662 8.64717 12717 ft 347 kts 83°
2026-04-26 08:15 47.37896 8.68209 13363 ft 352 kts 83°
2026-04-26 08:15 47.38129 8.71670 14000 ft 356 kts 83°
2026-04-26 08:15 47.38282 8.73989 14379 ft 359 kts 83°
2026-04-26 08:16 47.38536 8.77858 15033 ft 362 kts 83°
2026-04-26 08:16 47.38779 8.81573 15649 ft 365 kts 83°
2026-04-26 08:16 47.39026 8.85311 16238 ft 368 kts 83°
2026-04-26 08:16 47.39275 8.89090 16825 ft 371 kts 83°
2026-04-26 08:17 47.39523 8.92937 17410 ft 375 kts 83°
2026-04-26 08:17 47.39767 8.96792 17983 ft 378 kts 83°
2026-04-26 08:17 47.40011 9.00672 18547 ft 382 kts 83°
2026-04-26 08:17 47.40258 9.04515 19030 ft 385 kts 83°
2026-04-26 08:18 47.40529 9.08735 19562 ft 389 kts 83°
2026-04-26 08:18 47.40772 9.12532 20044 ft 392 kts 83°
2026-04-26 08:18 47.41027 9.16564 20544 ft 395 kts 84°
2026-04-26 08:18 47.41298 9.20655 21043 ft 398 kts 81°
2026-04-26 08:19 47.41709 9.24713 21521 ft 401 kts 81°
2026-04-26 08:19 47.42225 9.28778 22017 ft 404 kts 76°
2026-04-26 08:19 47.42892 9.32819 22513 ft 407 kts 75°
2026-04-26 08:19 47.43622 9.36885 22995 ft 411 kts 74°
2026-04-26 08:20 47.44352 9.40978 23461 ft 414 kts 75°
2026-04-26 08:20 47.45054 9.45125 23914 ft 417 kts 76°
2026-04-26 08:20 47.45743 9.49497 24308 ft 420 kts 77°
2026-04-26 08:20 47.46373 9.53719 24691 ft 423 kts 77°
2026-04-26 08:21 47.46948 9.57963 25063 ft 425 kts 82°
2026-04-26 08:21 47.47127 9.62333 25432 ft 428 kts 91°
2026-04-26 08:21 47.46906 9.66796 25801 ft 430 kts 94°
2026-04-26 08:21 47.46654 9.71196 26158 ft 432 kts 94°
2026-04-26 08:22 47.46409 9.75653 26505 ft 434 kts 94°
2026-04-26 08:22 47.46167 9.80146 26861 ft 436 kts 94°
2026-04-26 08:22 47.45925 9.84618 27201 ft 438 kts 94°
2026-04-26 08:22 47.45677 9.89124 27537 ft 440 kts 94°
2026-04-26 08:23 47.45421 9.93716 27879 ft 443 kts 94°
2026-04-26 08:23 47.45165 9.98243 28201 ft 445 kts 95°
2026-04-26 08:23 47.44905 10.02814 28527 ft 447 kts 95°
2026-04-26 08:23 47.44643 10.07388 28853 ft 449 kts 94°
2026-04-26 08:24 47.44372 10.11993 29177 ft 450 kts 94°
2026-04-26 08:24 47.44092 10.16705 29477 ft 452 kts 95°
2026-04-26 08:24 47.43610 10.21238 29751 ft 455 kts 101°
2026-04-26 08:24 47.42989 10.25849 30051 ft 456 kts 101°
2026-04-26 08:25 47.42369 10.30461 30318 ft 458 kts 101°
2026-04-26 08:25 47.41746 10.35088 30558 ft 460 kts 101°
2026-04-26 08:25 47.40889 10.39640 30766 ft 462 kts 111°
2026-04-26 08:25 47.39503 10.43921 30981 ft 463 kts 121°
2026-04-26 08:26 47.37626 10.47791 31163 ft 465 kts 131°
2026-04-26 08:26 47.35316 10.51115 31430 ft 464 kts 142°
2026-04-26 08:26 47.32660 10.53805 31723 ft 462 kts 152°
2026-04-26 08:26 47.29837 10.56062 32015 ft 462 kts 153°
2026-04-26 08:27 47.27010 10.58306 32316 ft 461 kts 153°
2026-04-26 08:27 47.24192 10.60538 32619 ft 460 kts 153°
2026-04-26 08:27 47.21337 10.62791 32936 ft 459 kts 153°
2026-04-26 08:27 47.18560 10.64978 33254 ft 458 kts 153°
2026-04-26 08:28 47.15640 10.66957 33569 ft 455 kts 161°
2026-04-26 08:28 47.12677 10.68581 33887 ft 455 kts 161°
2026-04-26 08:28 47.09710 10.70206 34188 ft 454 kts 161°
2026-04-26 08:28 47.06753 10.71822 34446 ft 453 kts 161°
2026-04-26 08:29 47.03765 10.73455 34720 ft 452 kts 161°
2026-04-26 08:29 47.00857 10.75053 34948 ft 452 kts 161°
2026-04-26 08:29 46.97879 10.76715 35202 ft 451 kts 161°
2026-04-26 08:29 46.94955 10.78368 35450 ft 451 kts 161°
2026-04-26 08:30 46.92032 10.80030 35655 ft 450 kts 161°
2026-04-26 08:30 46.89112 10.81690 35861 ft 450 kts 161°
2026-04-26 08:30 46.86199 10.83344 36058 ft 449 kts 161°
2026-04-26 08:30 46.83288 10.84989 36280 ft 448 kts 161°
2026-04-26 08:31 46.80400 10.86682 36503 ft 448 kts 157°
2026-04-26 08:31 46.77672 10.88911 36662 ft 451 kts 147°
2026-04-26 08:31 46.75225 10.91767 36825 ft 453 kts 138°
2026-04-26 08:31 46.73075 10.95133 36959 ft 454 kts 133°
2026-04-26 08:32 46.70947 10.98641 37149 ft 454 kts 133°
2026-04-26 08:32 46.68861 11.02062 37219 ft 454 kts 133°
2026-04-26 08:32 46.65334 11.07824 37207 ft 454 kts 133°
2026-04-26 08:33 46.61110 11.14710 37208 ft 452 kts 133°
2026-04-26 08:33 46.56916 11.21538 37187 ft 452 kts 134°
2026-04-26 08:34 46.52093 11.29358 37138 ft 452 kts 134°
2026-04-26 08:34 46.47896 11.36142 37137 ft 452 kts 134°
2026-04-26 08:35 46.43687 11.42935 37130 ft 453 kts 133°
2026-04-26 08:35 46.40181 11.48578 37152 ft 453 kts 134°
2026-04-26 08:36 46.35961 11.55359 37149 ft 454 kts 133°
2026-04-26 08:36 46.31732 11.62142 37143 ft 454 kts 134°
2026-04-26 08:37 46.27473 11.68953 37144 ft 454 kts 134°
2026-04-26 08:37 46.23237 11.75709 37135 ft 453 kts 134°
2026-04-26 08:38 46.18996 11.82446 37138 ft 453 kts 134°
2026-04-26 08:38 46.14705 11.89252 37137 ft 453 kts 134°
2026-04-26 08:39 46.10546 11.95842 37136 ft 454 kts 134°
2026-04-26 08:39 46.06294 12.02561 37114 ft 454 kts 134°
2026-04-26 08:40 46.02027 12.09289 37120 ft 455 kts 134°
2026-04-26 08:40 45.97756 12.16008 37114 ft 455 kts 133°
2026-04-26 08:41 45.93476 12.22705 37112 ft 455 kts 134°
2026-04-26 08:41 45.89195 12.29396 37107 ft 455 kts 133°
2026-04-26 08:42 45.85026 12.36240 37114 ft 455 kts 131°
2026-04-26 08:42 45.80937 12.43183 37109 ft 455 kts 131°
2026-04-26 08:43 45.76831 12.50088 37106 ft 455 kts 131°
2026-04-26 08:43 45.72689 12.56932 37106 ft 455 kts 132°
2026-04-26 08:44 45.68533 12.63757 37111 ft 455 kts 132°
2026-04-26 08:44 45.64346 12.70644 37100 ft 455 kts 132°
2026-04-26 08:45 45.60221 12.77433 37108 ft 456 kts 132°
2026-04-26 08:45 45.56037 12.84306 37110 ft 456 kts 132°
2026-04-26 08:46 45.51873 12.91118 37109 ft 456 kts 132°
2026-04-26 08:46 45.47692 12.97922 37123 ft 456 kts 132°
2026-04-26 08:47 45.43513 13.04710 37120 ft 456 kts 132°
2026-04-26 08:47 45.39328 13.11499 37114 ft 456 kts 132°
2026-04-26 08:48 45.35137 13.18282 37120 ft 456 kts 132°
2026-04-26 08:48 45.31045 13.25167 37126 ft 456 kts 124°
2026-04-26 08:49 45.27771 13.32895 37121 ft 456 kts 120°
2026-04-26 08:49 45.24528 13.40701 37120 ft 456 kts 120°
2026-04-26 08:50 45.21300 13.48460 37117 ft 457 kts 120°
2026-04-26 08:50 45.18080 13.56178 37117 ft 457 kts 121°
2026-04-26 08:51 45.13199 13.67815 37120 ft 457 kts 120°
2026-04-26 08:52 45.09955 13.75534 37119 ft 457 kts 120°
2026-04-26 08:52 45.06701 13.83260 37128 ft 457 kts 121°
2026-04-26 08:53 45.03443 13.90965 37134 ft 457 kts 120°
2026-04-26 08:53 45.00185 13.98651 37135 ft 457 kts 120°
2026-04-26 08:54 44.96915 14.06356 37136 ft 457 kts 120°
2026-04-26 08:54 44.93653 14.14031 37136 ft 456 kts 121°
2026-04-26 08:55 44.90369 14.21707 37133 ft 456 kts 121°
2026-04-26 08:55 44.87083 14.29359 37127 ft 456 kts 121°
2026-04-26 08:56 44.83798 14.37015 37124 ft 456 kts 121°
2026-04-26 08:56 44.80512 14.44660 37124 ft 456 kts 121°
2026-04-26 08:57 44.77214 14.52301 37125 ft 456 kts 121°
2026-04-26 08:57 44.73886 14.59968 37132 ft 456 kts 121°
2026-04-26 08:58 44.70575 14.67588 37128 ft 456 kts 121°
2026-04-26 08:58 44.67266 14.75202 37130 ft 456 kts 121°
2026-04-26 08:59 44.63952 14.82805 37135 ft 456 kts 121°
2026-04-26 08:59 44.60630 14.90393 37138 ft 456 kts 121°
2026-04-26 09:00 44.57302 14.97977 37128 ft 456 kts 121°
2026-04-26 09:00 44.53965 15.05546 37133 ft 457 kts 121°
2026-04-26 09:01 44.50622 15.13117 37138 ft 457 kts 121°
2026-04-26 09:01 44.47273 15.20688 37138 ft 457 kts 121°
2026-04-26 09:02 44.45031 15.25740 37135 ft 457 kts 121°
2026-04-26 09:02 44.44676 15.26540 37134 ft 457 kts 121°
2026-04-26 09:03 44.39666 15.37813 37130 ft 457 kts 121°
2026-04-26 09:03 44.36306 15.45347 37133 ft 457 kts 122°
2026-04-26 09:04 44.32939 15.52865 37132 ft 457 kts 122°
2026-04-26 09:04 44.29565 15.60386 37119 ft 457 kts 122°
2026-04-26 09:05 44.26191 15.67902 37119 ft 457 kts 122°
2026-04-26 09:05 44.22808 15.75415 37121 ft 457 kts 122°
2026-04-26 09:06 44.19397 15.82949 37119 ft 457 kts 122°
2026-04-26 09:06 44.15981 15.90481 37119 ft 457 kts 122°
2026-04-26 09:07 44.12580 15.97961 37108 ft 457 kts 122°
2026-04-26 09:07 44.09183 16.05426 37107 ft 457 kts 122°
2026-04-26 09:08 44.05776 16.12884 37112 ft 457 kts 122°
2026-04-26 09:08 44.02346 16.20378 37089 ft 457 kts 123°
2026-04-26 09:09 43.98935 16.27823 37096 ft 457 kts 123°
2026-04-26 09:09 43.95510 16.35254 37092 ft 457 kts 123°
2026-04-26 09:10 43.92062 16.42718 37103 ft 457 kts 123°
2026-04-26 09:10 43.88625 16.50139 37100 ft 457 kts 123°
2026-04-26 09:11 43.85166 16.57598 37095 ft 457 kts 123°
2026-04-26 09:11 43.81730 16.65001 37098 ft 457 kts 123°
2026-04-26 09:12 43.78259 16.72447 37100 ft 457 kts 123°
2026-04-26 09:12 43.74823 16.79786 37099 ft 457 kts 123°
2026-04-26 09:13 43.71428 16.87288 37096 ft 458 kts 121°
2026-04-26 09:13 43.68314 16.94966 37099 ft 458 kts 119°
2026-04-26 09:14 43.65240 17.02670 37097 ft 458 kts 120°
2026-04-26 09:14 43.62070 17.10371 37100 ft 459 kts 120°
2026-04-26 09:15 43.58856 17.18030 37101 ft 459 kts 121°
2026-04-26 09:15 43.55673 17.25615 37104 ft 459 kts 121°
2026-04-26 09:16 43.52453 17.33297 37112 ft 459 kts 120°
2026-04-26 09:16 43.49261 17.40920 37109 ft 459 kts 121°
2026-04-26 09:17 43.46058 17.48537 37111 ft 460 kts 121°
2026-04-26 09:17 43.42819 17.56199 37107 ft 460 kts 121°
2026-04-26 09:18 43.39596 17.63813 37112 ft 460 kts 121°
2026-04-26 09:18 43.36368 17.71416 37110 ft 461 kts 121°
2026-04-26 09:19 43.33133 17.79011 37110 ft 461 kts 121°
2026-04-26 09:19 43.29897 17.86596 37086 ft 461 kts 121°
2026-04-26 09:20 43.26656 17.94180 37084 ft 461 kts 121°
2026-04-26 09:20 43.23397 18.01767 37088 ft 461 kts 121°
2026-04-26 09:21 43.20140 18.09352 37097 ft 461 kts 121°
2026-04-26 09:21 43.16874 18.16966 37098 ft 461 kts 121°
2026-04-26 09:22 43.13607 18.24530 37079 ft 461 kts 121°
2026-04-26 09:22 43.10324 18.32076 37089 ft 462 kts 122°
2026-04-26 09:23 43.07573 18.38398 37091 ft 462 kts 122°
2026-04-26 09:23 43.04286 18.45949 37093 ft 462 kts 122°
2026-04-26 09:24 43.01006 18.53476 37091 ft 462 kts 122°
2026-04-26 09:24 42.97702 18.61020 37084 ft 463 kts 122°
2026-04-26 09:25 42.94381 18.68574 37084 ft 463 kts 122°
2026-04-26 09:25 42.91082 18.76075 37086 ft 463 kts 122°
2026-04-26 09:26 42.87827 18.83474 37079 ft 463 kts 122°
2026-04-26 09:26 42.84474 18.91064 37081 ft 464 kts 122°
2026-04-26 09:27 42.81139 18.98583 37076 ft 464 kts 122°
2026-04-26 09:27 42.77798 19.06109 37075 ft 465 kts 122°
2026-04-26 09:28 42.74447 19.13630 37073 ft 465 kts 122°
2026-04-26 09:28 42.71079 19.21155 37070 ft 466 kts 122°
2026-04-26 09:29 42.67703 19.28692 37069 ft 466 kts 122°
2026-04-26 09:29 42.64330 19.36218 37069 ft 466 kts 123°
2026-04-26 09:30 42.60926 19.43779 37066 ft 467 kts 122°
2026-04-26 09:30 42.57523 19.51311 37076 ft 468 kts 122°
2026-04-26 09:31 42.54051 19.58787 37081 ft 467 kts 128°
2026-04-26 09:31 42.49602 19.65103 37063 ft 464 kts 140°
2026-04-26 09:32 42.44824 19.70985 37083 ft 464 kts 140°
2026-04-26 09:32 42.40055 19.76858 37078 ft 464 kts 140°
2026-04-26 09:33 42.35262 19.82744 37093 ft 465 kts 140°
2026-04-26 09:33 42.30475 19.88603 37091 ft 465 kts 140°
2026-04-26 09:34 42.25687 19.94456 37087 ft 465 kts 140°
2026-04-26 09:34 42.20896 20.00308 37096 ft 464 kts 140°
2026-04-26 09:35 42.16107 20.06143 37099 ft 464 kts 140°
2026-04-26 09:35 42.11310 20.11967 37104 ft 464 kts 140°
2026-04-26 09:36 42.06515 20.17781 37101 ft 464 kts 140°
2026-04-26 09:36 42.01720 20.23578 37104 ft 464 kts 140°
2026-04-26 09:37 41.96883 20.29411 37103 ft 463 kts 140°
2026-04-26 09:37 41.92081 20.35193 37110 ft 463 kts 140°
2026-04-26 09:38 41.87288 20.40952 37105 ft 463 kts 140°
2026-04-26 09:38 41.82486 20.46718 37109 ft 463 kts 140°
2026-04-26 09:39 41.77728 20.52538 37100 ft 464 kts 135°
2026-04-26 09:39 41.73894 20.59493 37088 ft 465 kts 124°
2026-04-26 09:40 41.70349 20.66741 37091 ft 465 kts 124°
2026-04-26 09:40 41.66779 20.73975 36752 ft 465 kts 124°
2026-04-26 09:40 41.64999 20.77575 36159 ft 464 kts 124°
2026-04-26 09:41 41.63224 20.81167 35607 ft 462 kts 124°
2026-04-26 09:41 41.61459 20.84739 35053 ft 460 kts 124°
2026-04-26 09:41 41.59703 20.88292 34497 ft 458 kts 124°
2026-04-26 09:41 41.57946 20.91845 33928 ft 457 kts 124°
2026-04-26 09:42 41.56199 20.95375 33354 ft 455 kts 124°
2026-04-26 09:42 41.54436 20.98931 32804 ft 452 kts 124°
2026-04-26 09:42 41.52704 21.02419 32266 ft 449 kts 124°
2026-04-26 09:42 41.50981 21.05880 31729 ft 447 kts 124°
2026-04-26 09:43 41.49260 21.09325 31201 ft 445 kts 124°
2026-04-26 09:43 41.47544 21.12754 30677 ft 443 kts 124°
2026-04-26 09:43 41.45837 21.16170 30167 ft 442 kts 124°
2026-04-26 09:43 41.44139 21.19572 29611 ft 439 kts 124°
2026-04-26 09:44 41.42459 21.22936 29122 ft 434 kts 124°
2026-04-26 09:44 41.40793 21.26268 28655 ft 429 kts 124°
2026-04-26 09:44 41.39143 21.29562 28184 ft 426 kts 124°
2026-04-26 09:44 41.37505 21.32826 27714 ft 422 kts 124°
2026-04-26 09:45 41.35881 21.36054 27243 ft 419 kts 124°
2026-04-26 09:45 41.34266 21.39263 26777 ft 416 kts 124°
2026-04-26 09:45 41.32662 21.42451 26285 ft 414 kts 124°
2026-04-26 09:45 41.31043 21.45665 25807 ft 412 kts 124°
2026-04-26 09:46 41.29447 21.48828 25318 ft 410 kts 124°
2026-04-26 09:46 41.27858 21.51975 24808 ft 410 kts 124°
2026-04-26 09:46 41.26270 21.55114 24297 ft 409 kts 124°
2026-04-26 09:46 41.24680 21.58252 23779 ft 409 kts 124°
2026-04-26 09:47 41.23094 21.61377 23351 ft 405 kts 124°
2026-04-26 09:47 41.21521 21.64478 22821 ft 403 kts 124°
2026-04-26 09:47 41.19963 21.67549 22260 ft 402 kts 124°
2026-04-26 09:47 41.18413 21.70604 21882 ft 396 kts 123°
2026-04-26 09:48 41.16867 21.73647 21370 ft 395 kts 124°
2026-04-26 09:48 41.15344 21.76641 20946 ft 387 kts 123°
2026-04-26 09:48 41.13844 21.79578 20250 ft 381 kts 123°
2026-04-26 09:48 41.12366 21.82469 19792 ft 368 kts 123°
2026-04-26 09:49 41.10933 21.85267 19343 ft 366 kts 123°
2026-04-26 09:49 41.09500 21.88063 18887 ft 367 kts 123°
2026-04-26 09:49 41.08075 21.90844 18455 ft 366 kts 123°
2026-04-26 09:49 41.06622 21.93615 17964 ft 365 kts 125°
2026-04-26 09:50 41.05095 21.96363 17542 ft 363 kts 126°
2026-04-26 09:50 41.03577 21.99007 17124 ft 361 kts 127°
2026-04-26 09:50 41.02054 22.01633 16722 ft 359 kts 127°
2026-04-26 09:50 41.01044 22.03373 16446 ft 358 kts 127°
2026-04-26 09:51 40.99533 22.05983 16042 ft 356 kts 126°
2026-04-26 09:51 40.98015 22.08618 15631 ft 354 kts 126°
2026-04-26 09:51 40.96531 22.11209 15236 ft 352 kts 126°
2026-04-26 09:51 40.95059 22.13792 14836 ft 351 kts 126°
2026-04-26 09:52 40.93591 22.16372 14422 ft 350 kts 126°
2026-04-26 09:52 40.90674 22.21478 13628 ft 347 kts 126°
2026-04-26 09:52 40.89226 22.24005 13216 ft 344 kts 126°
2026-04-26 09:53 40.87790 22.26514 12848 ft 341 kts 126°
2026-04-26 09:53 40.86367 22.29000 12485 ft 337 kts 126°
2026-04-26 09:53 40.84951 22.31465 12002 ft 337 kts 126°
2026-04-26 09:53 40.83541 22.33918 11628 ft 334 kts 126°
2026-04-26 09:54 40.82142 22.36354 11256 ft 331 kts 126°
2026-04-26 09:54 40.80734 22.38803 10867 ft 328 kts 126°
2026-04-26 09:54 40.79349 22.41201 10451 ft 327 kts 126°
2026-04-26 09:54 40.78072 22.43678 10338 ft 314 kts 115°
2026-04-26 09:55 40.77329 22.46254 10054 ft 302 kts 101°
2026-04-26 09:55 40.77085 22.48974 9382 ft 296 kts 89°
2026-04-26 09:55 40.77046 22.51671 8731 ft 293 kts 89°
2026-04-26 09:55 40.76997 22.54354 8285 ft 282 kts 89°
2026-04-26 09:56 40.76944 22.56892 7887 ft 271 kts 89°
2026-04-26 09:56 40.76892 22.59330 7509 ft 262 kts 89°
2026-04-26 09:56 40.76844 22.61738 7137 ft 264 kts 89°
2026-04-26 09:56 40.76797 22.64170 6740 ft 265 kts 89°
2026-04-26 09:57 40.76749 22.66644 6339 ft 265 kts 89°
2026-04-26 09:57 40.76699 22.69086 5919 ft 265 kts 90°
2026-04-26 09:57 40.76645 22.71548 5514 ft 265 kts 90°
2026-04-26 09:57 40.76588 22.74011 5153 ft 262 kts 90°
2026-04-26 09:58 40.76532 22.76347 5093 ft 248 kts 90°
2026-04-26 09:58 40.76478 22.78569 5002 ft 239 kts 89°
2026-04-26 09:58 40.76426 22.80765 4903 ft 239 kts 88°
2026-04-26 09:58 40.76375 22.82974 4798 ft 243 kts 89°
2026-04-26 09:59 40.76288 22.85218 4622 ft 246 kts 97°
2026-04-26 09:59 40.75736 22.87366 4480 ft 247 kts 117°
2026-04-26 09:59 40.74659 22.89135 4262 ft 249 kts 139°
2026-04-26 09:59 40.73188 22.90285 3973 ft 245 kts 161°
2026-04-26 10:00 40.71549 22.90850 3682 ft 244 kts 167°
2026-04-26 10:00 40.69898 22.91377 3358 ft 243 kts 167°
2026-04-26 10:00 40.68287 22.91893 3036 ft 234 kts 167°
2026-04-26 10:00 40.66731 22.92390 2732 ft 227 kts 167°
2026-04-26 10:01 40.65225 22.92871 2441 ft 219 kts 167°
2026-04-26 10:01 40.63759 22.93339 2170 ft 213 kts 167°
2026-04-26 10:01 40.62356 22.93786 1882 ft 203 kts 167°
2026-04-26 10:01 40.61009 22.94216 1602 ft 191 kts 167°
2026-04-26 10:02 40.59766 22.94612 1354 ft 176 kts 167°
2026-04-26 10:02 40.58620 22.94978 1146 ft 163 kts 167°
2026-04-26 10:02 40.57553 22.95318 929 ft 154 kts 167°
2026-04-26 10:02 40.56529 22.95643 738 ft 148 kts 168°
2026-04-26 10:03 40.55541 22.95956 553 ft 144 kts 168°
2026-04-26 10:03 40.54568 22.96272 405 ft 144 kts 168°
2026-04-26 10:03 40.53602 22.96574 204 ft 142 kts 169°
2026-04-26 10:03 40.52649 22.96885 40 ft 139 kts 168°
2026-04-26 10:04 40.51851 22.97134 28 ft 83 kts 166°
2026-04-26 10:04 40.51541 22.97247 30 ft 28 kts 140°
2026-04-26 10:04 40.51557 22.97414 29 ft 1 kts
2026-04-26 10:04 40.51569 22.97408 29 ft 3 kts 345°
2026-04-26 10:05 40.51588 22.97402 29 ft 5 kts 345°
2026-04-26 10:05 40.51669 22.97374 29 ft 13 kts 346°
2026-04-26 10:05 40.51759 22.97347 29 ft 13 kts 346°
2026-04-26 10:05 40.51846 22.97320 28 ft 13 kts 346°
2026-04-26 10:06 40.51972 22.97278 26 ft 23 kts 345°
2026-04-26 10:06 40.52123 22.97229 28 ft 23 kts 347°
2026-04-26 10:06 40.52288 22.97178 28 ft 23 kts 346°
2026-04-26 10:06 40.52388 22.97244 28 ft 18 kts 76°
2026-04-26 10:07 40.52370 22.97299 28 ft 5 kts 134°
2026-04-26 10:07 40.52367 22.97342 28 ft 6 kts 57°
2026-04-26 10:07 40.52391 22.97375 28 ft 5 kts 45°
2026-04-26 10:07 40.52411 22.97401 28 ft 4 kts 44°
2026-04-26 10:08 40.52416 22.97407 28 ft 2 kts 44°
2026-04-26 10:08 40.52425 22.97419 28 ft 2 kts 44°
2026-04-26 10:08 40.52431 22.97426 28 ft 1 kts 44°
2026-04-26 10:08 40.52433 22.97429 28 ft 0 kts 44°